Regional Weather Roundup
Issued by NWS Green Bay, WI

Home | Current Version | Previous Version | Graphics & Text | Print | Product List | Glossary Off
Versions: 1 2 3 4 5 6 7 8 9 10 11 12 13 14 15 16 17 18 19 20 21 22 23 24 25 26 27 28 29 30 31 32 33 34 35 36 37 38 39 40 41 42 43 44 45 46 47 48 49 50

000
ASUS43 KGRB 271259
RWRGRB

NORTH-CENTRAL AND NORTHEAST WISCONSIN REGIONAL WEATHER ROUNDUP
NATIONAL WEATHER SERVICE GREEN BAY WI
700 AM CST TUE JAN 27 2015

WIZ005-009-010>012-018-019-271400-
NORTH CENTRAL WISCONSIN

CITY           SKY/WX    TMP DP  RH WIND       PRES   REMARKS
IRONWOOD       CLOUDY    19  19 100 CALM      30.07R
MANITOWISH WTR NOT AVBL
ARBOR VITAE    NOT AVBL
EAGLE RIVER    NOT AVBL
LAND O LAKES   NOT AVBL
RHINELANDER    CLOUDY    20  18  92 E3        30.08R
PHILLIPS       NOT AVBL
ANTIGO         NOT AVBL
TOMAHAWK       NOT AVBL
MERRILL        NOT AVBL
$$

WIZ013-073-271400-
NORTHEAST WISCONSIN

CITY           SKY/WX    TMP DP  RH WIND       PRES   REMARKS
IRON MOUNTAIN  CLOUDY    14  11  87 CALM      30.11R
MARINETTE      CLOUDY    19  18  93 CALM      30.15R
$$

WIZ017-030-035>037-045-271400-
CENTRAL WISCONSIN

CITY           SKY/WX    TMP DP  RH WIND       PRES   REMARKS
MEDFORD        NOT AVBL
WAUSAU         CLOUDY    22  20  92 CALM      30.09R FOG
MOSINEE        CLOUDY    21  21 100 NE3       30.10
MARSHFIELD     CLOUDY    23  20  88 NE5       30.09R FOG
WISC RAPIDS    CLOUDY    23  19  85 NE7       30.12R
STEVENS POINT  NOT AVBL
WAUPACA        NOT AVBL
SHAWANO        NOT AVBL
CLINTONVILLE   NOT AVBL
$$

WIZ038-039-048-051-271400-
FOX VALLEY

CITY           SKY/WX    TMP DP  RH WIND       PRES   REMARKS
NWS GREEN BAY  CLOUDY    23  19  85 NE7       30.14R
APPLETON       NOT AVBL
OSHKOSH        CLOUDY    24  20  84 NE7       30.10R
FOND DU LAC    CLOUDY    25  19  78 NE6       30.10R
$$

WIZ022-050-052-271400-
EAST CENTRAL WISCONSIN

CITY           SKY/WX    TMP DP  RH WIND       PRES   REMARKS
STURGEON BAY   CLOUDY    21  16  79 N5        30.16R
MANITOWOC      NOT AVBL
SHEBOYGAN      CLOUDY    25  17  72 NE8       30.11R
$$

LMZ563-521-522-541>543-271400-
LAKESHORE

STATION/POSITION TIME  TEMP    WIND        PRES    VSBY  WAVE
                       AIR SEA DIR/SP/G                  HT/PER
                 (UTC) (F)     (DEG/KT/KT) (MB)    (MI)  (FT/S)
SHEBOYGAN LKSHOR 1200   26      40/ 11/ 13 1019.9R
KEWAUNEE LKSHORE 1200   25      60/  7/ 10 1018.9R
NORTHPORT PIER   1200   24      10/  4/  5 1020.3R
SISTER BAY LKSHO 1200   20        CALM       N/A
CHAMBERS ISLAND  1200   19     350/  1/  2 1020.3R
MENOMINEE LKSHOR 1200   20      10/  3     1021.3R
$$


USA.gov is the U.S. government's official web portal to all federal, state and local government web resources and services.